Regional Weather Roundup
Issued by NWS

Home | Current Version | Previous Version | Graphics & Text | Print | Product List | Glossary On
Versions: 1 2 3 4 5 6 7 8 9 10 11 12 13 14 15 16 17 18 19 20 21 22 23 24 25 26 27 28 29 30 31 32 33 34 35 36 37 38 39 40 41 42 43 44 45 46 47 48 49 50
215
ASUS45 KBOI 222010
RWRID

IDAHO REGIONAL WEATHER ROUNDUP
NATIONAL WEATHER SERVICE BOISE ID
200 PM MDT WED MAR 22 2017

NOTE: "FAIR" INDICATES FEW OR NO CLOUDS BELOW 12000 FEET
WITH NO SIGNIFICANT WEATHER AND/OR OBSTRUCTIONS TO VISIBILITY

IDZ012-014-222100-
SOUTHWEST IDAHO


CITY           SKY/WX    TMP DP  RH WIND       PRES   REMARKS
BOISE          MOSUNNY   57  35  43 SW7       29.89F
CALDWELL       MOSUNNY   61  39  44 VRB5      29.89F
MOUNTAIN HOME  PTSUNNY   59  32  36 SW8       29.88F
$$

IDZ016-017-222100-
SOUTHCENTRAL IDAHO


CITY           SKY/WX    TMP DP  RH WIND       PRES   REMARKS
BURLEY         CLOUDY    51  40  65 NW5       29.90F
JEROME         MOSUNNY   53  36  52 VRB5      29.91F
TWIN FALLS     MOSUNNY   56  34  43 W7        29.90F
$$

IDZ019>023-222100-
SOUTHEAST IDAHO


CITY           SKY/WX    TMP DP  RH WIND       PRES   REMARKS
IDAHO FALLS    PTSUNNY   49  37  63 SW18      29.94F
POCATELLO      PTSUNNY   47  43  86 E14       29.93F
REXBURG        CLOUDY    51  34  52 SW16G23   29.91F
$$

IDZ006-010-011-018-031-032-222100-
CENTRAL IDAHO MOUNTAINS


CITY           SKY/WX    TMP DP  RH WIND       PRES   REMARKS
MCCALL         PTSUNNY   42  31  64 S5        29.88S
HAILEY         PTSUNNY   46  30  53 CALM      29.94F
STANLEY          N/A     41  26  55 CALM      29.90F
SALMON         MOSUNNY   54  32  43 NE3       29.84F
CHALLIS        MOSUNNY   51  28  41 S5        29.86F
$$

IDZ002-004-006-007-026-222100-
NORTHERN IDAHO


CITY           SKY/WX    TMP DP  RH WIND       PRES   REMARKS
LEWISTON       PTSUNNY   55  46  71 NW12      29.85F
LOWELL           N/A     49  44  83 NW3       29.86F
COEUR D`ALENE  PTSUNNY   53  43  68 NW7       29.85F
MULLAN PASS    MOSUNNY   41  37  86 VRB3      29.84F
$$




USA.gov is the U.S. government's official web portal to all federal, state and local government web resources and services.